Yellow Mule RAWS (NWS)

Elevation
9200ft
Aggregated by Synoptic Data
Date/Time Wind Direction Wind Speed knots Wind Gust knots RH % Accumulated Precip Inches Air Temp Fahrenheit
2024-03-02 04:04 SE 7 10 93 0.28 18
2024-03-02 03:04 SE 3 8 93 0.28 18
2024-03-02 02:04 SE 4 9 93 0.28 17
2024-03-02 01:04 SE 4 8 93 0.28 17
2024-03-02 00:04 SSE 3 6 93 0.28 17
2024-03-01 23:04 SE 4 7 92 0.28 17
2024-03-01 22:04 SE 4 14 93 0.28 17
2024-03-01 21:04 SE 8 17 93 0.28 17
2024-03-01 20:04 SE 10 16 93 0.28 17
2024-03-01 19:04 SE 9 15 93 0.28 17
2024-03-01 18:04 SE 5 20 92 0.28 19
2024-03-01 17:04 S 14 24 89 0.28 21
2024-03-01 16:04 S 10 28 91 0.28 20
2024-03-01 15:04 S 15 25 91 0.28 21
2024-03-01 14:04 S 10 21 92 0.28 20
2024-03-01 13:04 S 9 19 91 0.28 19
2024-03-01 12:04 S 10 21 90 0.28 19
2024-03-01 11:04 SSW 14 27 90 0.28 18
2024-03-01 10:04 SSW 17 27 91 0.28 17
2024-03-01 09:04 SSW 15 19 91 0.28 16
2024-03-01 08:04 SW 14 22 91 0.28 15
2024-03-01 07:04 WSW 13 20 91 0.28 16
2024-03-01 06:04 SSW 11 31 93 0.28 19
2024-03-01 05:04 S 15 29 92 0.28 21
2024-03-01 04:04 S 16 42 85 0.28 22
2024-03-01 03:04 SSE 22 42 78 0.28 24
2024-03-01 02:04 S 23 45 79 0.28 24
2024-03-01 01:04 S 20 50 83 0.28 24
2024-03-01 00:04 SSE 30 52 88 0.28 24
2024-02-29 23:04 SSE 27 48 90 0.28 24
2024-02-29 22:04 SSE 18 41 94 0.28 23
2024-02-29 21:04 SSE 17 30 95 0.28 22
2024-02-29 20:04 SSE 19 32 86 0.28 23
2024-02-29 19:04 SSE 20 34 85 0.28 23
2024-02-29 18:04 SSE 17 44 80 0.28 24
2024-02-29 17:04 S 22 43 78 0.28 25
2024-02-29 16:04 S 24 45 76 0.28 26
2024-02-29 15:04 S 19 37 75 0.28 27
2024-02-29 14:04 SSE 17 50 82 0.28 26
2024-02-29 13:04 SSE 21 37 78 0.28 27
2024-02-29 12:04 SSE 17 40 78 0.28 25
2024-02-29 11:04 SE 12 28 78 0.28 26
2024-02-29 10:04 SE 12 29 81 0.28 24
2024-02-29 09:04 SSE 12 23 88 0.28 22
2024-02-29 08:04 SSE 8 12 88 0.28 17
2024-02-29 07:04 SSE 7 12 91 0.28 15
2024-02-29 06:04 SE 8 23 92 0.28 15
2024-02-29 05:04 SSE 12 20 92 0.28 17
2024-02-29 04:04 SSE 10 19 92 0.28 16